User: anonymous   Login
Location: Unspecified
(0.0000°N, 0.0000°E)
Time: 05:24:28
(UTC+02:00)
Language:

SJ-6B - Orbit

View from above orbital plane
View from above orbital plane
View from above satellite
View from above satellite

Ground track
Ground track

The orbit data is extracted from the following two-line orbital elements,

1 28415U 04035C   15107.83565605  .00004362  00000-0  30829-3 0  9994
2 28415 097.7972 119.6529 0053033 282.7335 076.7966 15.04311869579516
Epoch (UTC): 17 April 2015 20:03:20
Eccentricity: 0.0053033
inclination: 97.7972°
perigee height: 517 km
apogee height: 590 km
right ascension of ascending node: 119.6529°
argument of perigee: 282.7335°
revolutions per day: 15.04311869
mean anomaly at epoch: 76.7966°
orbit number at epoch: 57951

The dashed part of the orbit path shows where the satellite is in the earth's shadow,  

DLR